{"data":{"norad_id":45446,"epoch":"2026-09-20T01:35:48.107328Z","epoch_age_seconds":55583,"freshness":"FRESH","line1":"1 45446U 20020Y   26263.06652902 -.00000353  00000+0 -10317-2 0  9992","line2":"2 45446  87.8967   2.2080 0001979  99.0090 261.1262 13.11414794315032","mean_motion":13.11414794,"eccentricity":0.0001979,"inclination_deg":87.8967,"raan_deg":2.208,"arg_perigee_deg":99.009,"mean_anomaly_deg":261.1262,"bstar":-0.0010317,"rev_number":31503,"period_min":109.80507514391,"perigee_km":1216.1877898525,"apogee_km":1219.1942185765,"semimajor_km":7595.8280042145,"source":"CELESTRAK","updated_at":"2026-09-20T09:00:44.556932Z"}}